Location: Waco, TX
(31.5480°N, 97.1670°W)
Time: 15:16:38
(UTC-05:00)

ISS - Pass Details

Date: 18 August 2019
Orbit: 410 x 421 km, 51.6° (Epoch: 22 August)

Event Time Altitude Azimuth Distance (km) Brightness Sun altitude
Rises 09:34:23 0° 243° (WSW) 2,339 -0.4 32.6°
Reaches altitude 10° 09:36:35 10° 253° (WSW) 1,482 -1.4 33.1°
Maximum altitude 09:39:39 34° 320° (NW) 711 -2.7 33.7°
Drops below altitude 10° 09:42:44 10° 27° (NNE) 1,494 -0.6 34.4°
Sets 09:44:58 0° 37° (NE) 2,362 0.4 34.9°
